Time,TemperatureF,DewpointF,PressureIn,WindDirection,WindDirectionDegrees,WindSpeedMPH,WindSpeedGustMPH,Humidity,HourlyPrecipIn,Conditions,Clouds,dailyrainin,SoftwareType,DateUTC
2013-01-24 00:02:00,49.0,49.0,30.11,East,87,2.0,3.0,99,0.00,,,0.50,,2013-01-24 08:02:00,
2013-01-24 00:12:00,49.0,49.0,30.11,East,87,2.0,3.0,99,0.00,,,0.50,,2013-01-24 08:12:00,
2013-01-24 00:22:00,49.0,48.0,30.11,ENE,72,2.0,3.0,98,0.00,,,0.50,,2013-01-24 08:22:00,
2013-01-24 00:32:00,49.0,48.0,30.11,ENE,78,2.0,3.0,98,0.01,,,0.51,,2013-01-24 08:32:00,
2013-01-24 00:42:00,49.0,48.0,30.11,ENE,78,2.0,3.0,98,0.01,,,0.51,,2013-01-24 08:42:00,
2013-01-24 00:52:00,49.0,48.0,30.11,ENE,60,2.0,3.0,98,0.01,,,0.51,,2013-01-24 08:52:00,
2013-01-24 01:02:00,49.0,48.0,30.10,ENE,76,2.0,3.0,98,0.01,,,0.51,,2013-01-24 09:02:00,
2013-01-24 01:12:00,49.0,48.0,30.10,ENE,76,2.0,3.0,98,0.01,,,0.51,,2013-01-24 09:12:00,
2013-01-24 01:22:00,49.0,48.0,30.10,ENE,76,2.0,4.0,98,0.01,,,0.51,,2013-01-24 09:22:00,
2013-01-24 01:32:00,50.0,49.0,30.11,ENE,74,2.0,4.0,98,0.00,,,0.51,,2013-01-24 09:32:00,
2013-01-24 01:42:00,50.0,49.0,30.11,ENE,74,2.0,4.0,98,0.00,,,0.51,,2013-01-24 09:42:00,
2013-01-24 01:52:00,50.0,49.0,30.11,East,79,2.0,3.0,98,0.00,,,0.51,,2013-01-24 09:52:00,
2013-01-24 02:02:00,50.0,49.0,30.11,ENE,66,1.0,3.0,98,0.00,,,0.51,,2013-01-24 10:02:00,
2013-01-24 02:12:00,50.0,49.0,30.11,ENE,66,1.0,3.0,98,0.00,,,0.51,,2013-01-24 10:12:00,
2013-01-24 02:22:00,50.0,49.0,30.10,ENE,71,2.0,3.0,98,0.00,,,0.51,,2013-01-24 10:22:00,
2013-01-24 02:32:00,50.0,49.0,30.11,ENE,71,1.0,2.0,98,0.00,,,0.51,,2013-01-24 10:32:00,
2013-01-24 02:42:00,50.0,49.0,30.11,ENE,71,1.0,2.0,98,0.00,,,0.51,,2013-01-24 10:42:00,
2013-01-24 02:52:00,50.0,49.0,30.11,East,89,2.0,3.0,98,0.00,,,0.51,,2013-01-24 10:52:00,
2013-01-24 03:02:00,50.0,49.0,30.11,East,85,2.0,4.0,98,0.00,,,0.51,,2013-01-24 11:02:00,
2013-01-24 03:12:00,50.0,49.0,30.11,East,85,2.0,4.0,98,0.00,,,0.51,,2013-01-24 11:12:00,
2013-01-24 03:22:00,50.0,49.0,30.11,East,97,2.0,3.0,98,0.00,,,0.51,,2013-01-24 11:22:00,
2013-01-24 03:32:00,50.0,49.0,30.11,ENE,78,1.0,4.0,98,0.00,,,0.51,,2013-01-24 11:32:00,
2013-01-24 03:42:00,50.0,49.0,30.11,ENE,78,1.0,4.0,98,0.00,,,0.51,,2013-01-24 11:42:00,
2013-01-24 03:52:00,50.0,49.0,30.10,ENE,71,2.0,3.0,98,0.00,,,0.51,,2013-01-24 11:52:00,
2013-01-24 04:03:00,50.0,49.0,30.10,ENE,63,2.0,3.0,97,0.00,,,0.51,,2013-01-24 12:03:00,
2013-01-24 04:12:00,50.0,49.0,30.10,ENE,63,2.0,3.0,97,0.00,,,0.51,,2013-01-24 12:12:00,
2013-01-24 04:22:00,50.0,49.0,30.10,ENE,63,0.0,2.0,97,0.00,,,0.51,,2013-01-24 12:22:00,
2013-01-24 04:32:00,50.0,49.0,30.11,ENE,63,0.0,1.0,97,0.00,,,0.51,,2013-01-24 12:32:00,
2013-01-24 04:42:00,50.0,49.0,30.11,ENE,63,0.0,1.0,97,0.00,,,0.51,,2013-01-24 12:42:00,
2013-01-24 04:52:00,50.0,49.0,30.11,ENE,63,0.0,1.0,98,0.00,,,0.51,,2013-01-24 12:52:00,
2013-01-24 05:02:00,49.0,48.0,30.12,ENE,63,0.0,1.0,97,0.00,,,0.51,,2013-01-24 13:02:00,
2013-01-24 05:12:00,49.0,48.0,30.12,ENE,63,0.0,1.0,97,0.00,,,0.51,,2013-01-24 13:12:00,
2013-01-24 05:22:00,49.0,48.0,30.12,ENE,63,0.0,1.0,98,0.00,,,0.51,,2013-01-24 13:22:00,
2013-01-24 05:32:00,49.0,48.0,30.12,ENE,63,0.0,1.0,98,0.00,,,0.51,,2013-01-24 13:32:00,
2013-01-24 05:42:00,49.0,48.0,30.12,ENE,63,0.0,1.0,98,0.00,,,0.51,,2013-01-24 13:42:00,
2013-01-24 05:52:00,49.0,48.0,30.12,ENE,63,0.0,1.0,98,0.00,,,0.51,,2013-01-24 13:52:00,
2013-01-24 06:02:00,49.0,48.0,30.12,ENE,63,1.0,1.0,98,0.00,,,0.51,,2013-01-24 14:02:00,
2013-01-24 06:12:00,49.0,48.0,30.12,ENE,63,1.0,1.0,98,0.00,,,0.51,,2013-01-24 14:12:00,
2013-01-24 06:22:00,49.0,48.0,30.12,ENE,63,0.0,2.0,98,0.00,,,0.51,,2013-01-24 14:22:00,
2013-01-24 06:33:00,49.0,48.0,30.13,ENE,63,0.0,2.0,98,0.00,,,0.51,,2013-01-24 14:33:00,
2013-01-24 06:43:00,49.0,48.0,30.13,ENE,63,0.0,2.0,98,0.00,,,0.51,,2013-01-24 14:43:00,
2013-01-24 06:53:00,49.0,48.0,30.13,ENE,63,0.0,2.0,98,0.00,,,0.51,,2013-01-24 14:53:00,
2013-01-24 07:03:00,49.0,48.0,30.14,ENE,63,0.0,1.0,98,0.00,,,0.51,,2013-01-24 15:03:00,
2013-01-24 07:12:00,49.0,48.0,30.14,ENE,63,0.0,1.0,98,0.00,,,0.51,,2013-01-24 15:12:00,
2013-01-24 07:22:00,49.0,49.0,30.14,ENE,63,0.0,1.0,99,0.00,,,0.51,,2013-01-24 15:22:00,
2013-01-24 07:33:00,49.0,49.0,30.14,ENE,63,0.0,1.0,99,0.00,,,0.51,,2013-01-24 15:33:00,
2013-01-24 07:42:00,49.0,49.0,30.14,ENE,63,0.0,1.0,99,0.00,,,0.51,,2013-01-24 15:42:00,
2013-01-24 07:52:00,49.0,49.0,30.13,ENE,63,1.0,1.0,99,0.00,,,0.51,,2013-01-24 15:52:00,
2013-01-24 08:03:00,49.0,48.0,30.14,ENE,63,1.0,1.0,98,0.00,,,0.51,,2013-01-24 16:03:00,
2013-01-24 08:12:00,49.0,48.0,30.14,ENE,63,1.0,1.0,98,0.00,,,0.51,,2013-01-24 16:12:00,
2013-01-24 08:22:00,50.0,49.0,30.14,ENE,63,1.0,1.0,98,0.00,,,0.51,,2013-01-24 16:22:00,
2013-01-24 08:33:00,50.0,49.0,30.14,ENE,63,1.0,1.0,98,0.00,,,0.51,,2013-01-24 16:33:00,
2013-01-24 08:42:00,50.0,49.0,30.14,ENE,63,1.0,1.0,98,0.00,,,0.51,,2013-01-24 16:42:00,
2013-01-24 09:02:00,50.0,49.0,30.14,ENE,63,0.0,1.0,98,0.00,,,0.51,,2013-01-24 17:02:00,
2013-01-24 09:11:00,50.0,49.0,30.14,ENE,63,0.0,1.0,98,0.00,,,0.51,,2013-01-24 17:11:00,
2013-01-24 09:21:00,50.0,49.0,30.14,ENE,63,0.0,1.0,98,0.00,,,0.51,,2013-01-24 17:21:00,
2013-01-24 09:32:00,50.0,49.0,30.16,ENE,63,1.0,1.0,98,0.00,,,0.51,,2013-01-24 17:32:00,
2013-01-24 09:42:00,50.0,49.0,30.16,ENE,63,1.0,1.0,98,0.00,,,0.51,,2013-01-24 17:42:00,
2013-01-24 09:52:00,51.0,50.0,30.16,ENE,63,1.0,1.0,98,0.00,,,0.51,,2013-01-24 17:52:00,
2013-01-24 10:02:00,51.0,50.0,30.16,ENE,63,1.0,1.0,98,0.00,,,0.51,,2013-01-24 18:02:00,
2013-01-24 10:11:00,51.0,50.0,30.17,ENE,63,1.0,2.0,96,0.00,,,0.51,,2013-01-24 18:11:00,
2013-01-24 10:22:00,51.0,50.0,30.17,ENE,63,1.0,2.0,96,0.00,,,0.51,,2013-01-24 18:22:00,
2013-01-24 10:32:00,52.0,51.0,30.18,SSE,166,2.0,3.0,96,0.00,,,0.51,,2013-01-24 18:32:00,
2013-01-24 10:42:00,52.0,51.0,30.18,SSE,166,2.0,3.0,96,0.00,,,0.51,,2013-01-24 18:42:00,
2013-01-24 10:52:00,51.0,50.0,30.19,SSE,167,1.0,1.0,96,0.00,,,0.51,,2013-01-24 18:52:00,
2013-01-24 11:01:00,52.0,51.0,30.19,SE,126,1.0,3.0,96,0.00,,,0.51,,2013-01-24 19:01:00,
2013-01-24 11:12:00,52.0,51.0,30.19,SE,126,1.0,3.0,96,0.00,,,0.51,,2013-01-24 19:12:00,
2013-01-24 11:21:00,53.0,52.0,30.19,South,175,1.0,3.0,95,0.00,,,0.51,,2013-01-24 19:21:00,
2013-01-24 11:32:00,53.0,52.0,30.19,South,186,0.0,2.0,95,0.00,,,0.51,,2013-01-24 19:32:00,
2013-01-24 11:41:00,53.0,52.0,30.19,South,186,0.0,2.0,95,0.00,,,0.51,,2013-01-24 19:41:00,
2013-01-24 11:51:00,53.0,52.0,30.19,WSW,248,1.0,2.0,95,0.00,,,0.51,,2013-01-24 19:51:00,
2013-01-24 12:01:00,54.0,52.0,30.19,WSW,248,1.0,2.0,94,0.00,,,0.51,,2013-01-24 20:01:00,
2013-01-24 12:11:00,54.0,52.0,30.19,WSW,248,1.0,2.0,94,0.00,,,0.51,,2013-01-24 20:11:00,
2013-01-24 12:22:00,54.0,53.0,30.19,SSW,198,0.0,2.0,95,0.00,,,0.51,,2013-01-24 20:22:00,
2013-01-24 12:32:00,54.0,53.0,30.18,SSW,192,1.0,2.0,95,0.00,,,0.51,,2013-01-24 20:32:00,
2013-01-24 12:42:00,54.0,53.0,30.18,SSW,192,1.0,2.0,95,0.00,,,0.51,,2013-01-24 20:42:00,
2013-01-24 12:52:00,55.0,53.0,30.17,WSW,241,1.0,3.0,94,0.00,,,0.51,,2013-01-24 20:52:00,
2013-01-24 13:02:00,56.0,53.0,30.17,West,281,2.0,3.0,90,0.00,,,0.51,,2013-01-24 21:02:00,
2013-01-24 13:11:00,56.0,53.0,30.17,West,281,2.0,3.0,90,0.00,,,0.51,,2013-01-24 21:11:00,
2013-01-24 13:22:00,56.0,53.0,30.17,SSE,163,1.0,4.0,89,0.00,,,0.51,,2013-01-24 21:22:00,
2013-01-24 13:32:00,56.0,52.0,30.16,East,82,2.0,3.0,87,0.00,,,0.48,,2013-01-24 21:32:00,
2013-01-24 13:42:00,56.0,52.0,30.16,East,82,2.0,3.0,87,0.00,,,0.48,,2013-01-24 21:42:00,
2013-01-24 13:52:00,56.0,52.0,30.16,East,82,2.0,3.0,87,0.00,,,0.48,,2013-01-24 21:52:00,
2013-01-24 14:02:00,57.0,53.0,30.16,SSE,165,1.0,2.0,85,0.00,,,0.48,,2013-01-24 22:02:00,
2013-01-24 14:11:00,57.0,53.0,30.16,SSE,165,1.0,2.0,85,0.00,,,0.48,,2013-01-24 22:11:00,
2013-01-24 14:22:00,57.0,54.0,30.15,WNW,296,1.0,4.0,90,0.00,,,0.48,,2013-01-24 22:22:00,
2013-01-24 14:32:00,58.0,55.0,30.15,WSW,241,1.0,3.0,89,0.00,,,0.45,,2013-01-24 22:32:00,
2013-01-24 14:42:00,58.0,55.0,30.15,WSW,241,1.0,3.0,89,0.00,,,0.45,,2013-01-24 22:42:00,
2013-01-24 14:52:00,58.0,54.0,30.15,WSW,238,1.0,2.0,86,0.00,,,0.45,,2013-01-24 22:52:00,
2013-01-24 15:02:00,58.0,54.0,30.16,SW,217,1.0,3.0,87,0.00,,,0.45,,2013-01-24 23:02:00,
2013-01-24 15:11:00,58.0,54.0,30.16,SW,217,1.0,3.0,87,0.00,,,0.45,,2013-01-24 23:11:00,
2013-01-24 15:21:00,58.0,54.0,30.15,ESE,104,1.0,4.0,86,0.00,,,0.45,,2013-01-24 23:21:00,
2013-01-24 15:32:00,58.0,53.0,30.16,ESE,107,2.0,3.0,84,0.00,,,0.28,,2013-01-24 23:32:00,
2013-01-24 15:42:00,58.0,53.0,30.16,ESE,107,2.0,3.0,84,0.00,,,0.28,,2013-01-24 23:42:00,
2013-01-24 15:52:00,58.0,53.0,30.16,SE,135,1.0,3.0,83,0.00,,,0.28,,2013-01-24 23:52:00,
2013-01-24 16:01:00,58.0,53.0,30.16,SSE,154,1.0,3.0,83,0.00,,,0.28,,2013-01-25 00:01:00,
2013-01-24 16:12:00,58.0,53.0,30.16,SSE,154,1.0,3.0,83,0.00,,,0.28,,2013-01-25 00:12:00,
2013-01-24 16:21:00,58.0,54.0,30.16,South,178,1.0,2.0,85,0.00,,,0.28,,2013-01-25 00:21:00,
2013-01-24 16:32:00,58.0,54.0,30.16,South,176,1.0,1.0,85,0.00,,,0.20,,2013-01-25 00:32:00,
2013-01-24 16:41:00,58.0,54.0,30.16,South,176,1.0,1.0,85,0.00,,,0.20,,2013-01-25 00:41:00,
2013-01-24 16:51:00,58.0,54.0,30.16,South,176,1.0,1.0,85,0.00,,,0.20,,2013-01-25 00:51:00,
2013-01-24 17:01:00,57.0,53.0,30.17,ESE,123,1.0,2.0,88,0.00,,,0.20,,2013-01-25 01:01:00,
2013-01-24 17:11:00,57.0,53.0,30.17,ESE,123,1.0,2.0,88,0.00,,,0.20,,2013-01-25 01:11:00,
2013-01-24 17:21:00,56.0,52.0,30.17,ESE,121,1.0,2.0,88,0.00,,,0.20,,2013-01-25 01:21:00,
2013-01-24 17:31:00,56.0,53.0,30.17,ESE,121,1.0,2.0,89,0.00,,,0.09,,2013-01-25 01:31:00,
2013-01-24 17:41:00,56.0,53.0,30.17,ESE,121,1.0,2.0,89,0.00,,,0.09,,2013-01-25 01:41:00,
2013-01-24 17:51:00,55.0,52.0,30.18,ENE,57,1.0,2.0,89,0.00,,,0.09,,2013-01-25 01:51:00,
2013-01-24 18:01:00,55.0,52.0,30.18,East,83,1.0,2.0,89,0.00,,,0.09,,2013-01-25 02:01:00,
2013-01-24 18:11:00,55.0,52.0,30.18,East,83,1.0,2.0,89,0.00,,,0.09,,2013-01-25 02:11:00,
2013-01-24 18:22:00,54.0,51.0,30.19,SE,124,1.0,3.0,89,0.00,,,0.09,,2013-01-25 02:22:00,
2013-01-24 18:32:00,54.0,51.0,30.19,ESE,111,0.0,2.0,89,0.00,,,0.07,,2013-01-25 02:32:00,
2013-01-24 18:42:00,54.0,51.0,30.19,ESE,111,0.0,2.0,89,0.00,,,0.07,,2013-01-25 02:42:00,
2013-01-24 18:52:00,54.0,51.0,30.20,ENE,71,0.0,2.0,90,0.00,,,0.07,,2013-01-25 02:52:00,
2013-01-24 19:02:00,53.0,50.0,30.20,ENE,71,0.0,1.0,90,0.00,,,0.07,,2013-01-25 03:02:00,
2013-01-24 19:12:00,53.0,50.0,30.20,NNE,20,1.0,2.0,90,0.00,,,0.07,,2013-01-25 03:12:00,
2013-01-24 19:21:00,53.0,50.0,30.20,NNE,20,1.0,2.0,90,0.00,,,0.07,,2013-01-25 03:21:00,
2013-01-24 19:32:00,52.0,49.0,30.20,NNE,20,0.0,1.0,91,0.00,,,0.05,,2013-01-25 03:32:00,
2013-01-24 19:41:00,52.0,49.0,30.20,NNE,20,0.0,1.0,91,0.00,,,0.05,,2013-01-25 03:41:00,
2013-01-24 19:52:00,52.0,49.0,30.20,ENE,69,1.0,2.0,90,0.00,,,0.05,,2013-01-25 03:52:00,
2013-01-24 20:02:00,52.0,49.0,30.21,ENE,69,0.0,2.0,91,0.00,,,0.05,,2013-01-25 04:02:00,
2013-01-24 20:11:00,52.0,49.0,30.21,ENE,69,0.0,2.0,91,0.00,,,0.05,,2013-01-25 04:11:00,
2013-01-24 20:22:00,52.0,50.0,30.21,ENE,69,0.0,1.0,92,0.00,,,0.05,,2013-01-25 04:22:00,
2013-01-24 20:31:00,52.0,50.0,30.21,ENE,69,0.0,1.0,93,0.00,,,0.04,,2013-01-25 04:31:00,
2013-01-24 20:41:00,52.0,50.0,30.21,ENE,69,0.0,1.0,93,0.00,,,0.04,,2013-01-25 04:41:00,
2013-01-24 20:51:00,51.0,49.0,30.22,ENE,69,0.0,1.0,93,0.00,,,0.04,,2013-01-25 04:51:00,
2013-01-24 21:03:00,51.0,49.0,30.22,ENE,69,0.0,1.0,94,0.00,,,0.04,,2013-01-25 05:03:00,
2013-01-24 21:12:00,51.0,49.0,30.22,ENE,69,0.0,1.0,94,0.00,,,0.04,,2013-01-25 05:12:00,
2013-01-24 21:22:00,51.0,50.0,30.21,ENE,69,1.0,1.0,96,0.00,,,0.04,,2013-01-25 05:22:00,
2013-01-24 21:32:00,51.0,50.0,30.22,ENE,69,0.0,1.0,95,0.00,,,0.03,,2013-01-25 05:32:00,
2013-01-24 21:42:00,51.0,50.0,30.22,ENE,69,0.0,1.0,95,0.00,,,0.03,,2013-01-25 05:42:00,
2013-01-24 21:51:00,51.0,50.0,30.22,ENE,69,0.0,1.0,95,0.00,,,0.03,,2013-01-25 05:51:00,
2013-01-24 22:02:00,51.0,50.0,30.22,ENE,69,0.0,0.0,95,0.00,,,0.03,,2013-01-25 06:02:00,
2013-01-24 22:11:00,51.0,50.0,30.22,ENE,69,0.0,0.0,95,0.00,,,0.03,,2013-01-25 06:11:00,
2013-01-24 22:21:00,51.0,50.0,30.22,ENE,69,0.0,0.0,95,0.00,,,0.03,,2013-01-25 06:21:00,
2013-01-24 22:31:00,51.0,50.0,30.22,ENE,69,0.0,1.0,95,0.00,,,0.02,,2013-01-25 06:31:00,
2013-01-24 22:41:00,51.0,50.0,30.22,ENE,69,0.0,1.0,95,0.00,,,0.02,,2013-01-25 06:41:00,
2013-01-24 22:51:00,52.0,51.0,30.22,ENE,69,1.0,1.0,95,0.00,,,0.02,,2013-01-25 06:51:00,
2013-01-24 23:01:00,52.0,50.0,30.22,ENE,69,1.0,1.0,94,0.00,,,0.02,,2013-01-25 07:01:00,
2013-01-24 23:11:00,52.0,50.0,30.22,ENE,69,1.0,1.0,94,0.00,,,0.02,,2013-01-25 07:11:00,
2013-01-24 23:21:00,52.0,50.0,30.22,ENE,69,1.0,1.0,93,0.00,,,0.02,,2013-01-25 07:21:00,
2013-01-24 23:31:00,52.0,50.0,30.22,ENE,69,1.0,1.0,92,0.00,,,0.01,,2013-01-25 07:31:00,
2013-01-24 23:41:00,52.0,50.0,30.22,ENE,69,1.0,1.0,92,0.00,,,0.01,,2013-01-25 07:41:00,
2013-01-24 23:51:00,52.0,50.0,30.22,ENE,69,0.0,1.0,92,0.00,,,0.01,,2013-01-25 07:51:00,